{"data":{"norad_id":52568,"epoch":"2026-05-25T03:12:27.137952Z","epoch_age_seconds":60718,"freshness":"FRESH","line1":"1 52568U 22051AM  26145.13364743 -.00002974  00000+0 -16879-3 0  9992","line2":"2 52568  53.2131 135.9477 0001072  76.3429 283.7682 15.08851675223122","mean_motion":15.08851675,"eccentricity":0.0001072,"inclination_deg":53.2131,"raan_deg":135.9477,"arg_perigee_deg":76.3429,"mean_anomaly_deg":283.7682,"bstar":-0.00016879,"rev_number":22312,"period_min":95.436816213231,"perigee_km":538.96611043766,"apogee_km":540.44929634207,"semimajor_km":6917.8447033899,"source":"CELESTRAK","updated_at":"2026-05-25T13:38:17.168182Z"}}